SCP
0 0 0 0 0 0 0 0 0 0 0 0 0 0 0 0 0 0 0 0 0 0 0 0 0 0 0 0 0 0 0 0 0 0 -0 0 0 0 0 0 0 0 0 -0 -0 0 -0
0 -0 -0 0 0 0 0 0 0 0 0 0 0 0 0 0 0 0 0 0 0 0 0 0 0 0 0 0 0 0 0 0 0 0 0 0 0 0 0 0 0 0 0 -0 -0 0 -0
-0 0 0 0 0 0 0 0 0 0 0 0 0 0 -0 -0 -0 0 0 0 0 0 0 0 0 0 0 0 0 0 0 0 -0 0 0 0 0 0 0 0 0 0 0 -0 0 -0 0
0 0 0 0 0 0 0 0 0 0 0 0 0 0 -0 -0 -0 -0 -0 0 0 0 0 0 0 0 0 0 0 0 0 0 0 0 0 -0 0 0 0 0 0 0 0 0 0 0 -0
0 0 0 0 0 0 0 0 0 0 -0 0 0 -0 0 -0 -0 -0 -0 -0 -0 0 -0 0 0 0 0 0 0 -0 0 0 0 0 0 0 0 0 0 0 0 0 0 0 -0 -0 -0
0 0 0 0 0 0 0 0 0 0 0 0 0 -0 -0 -0 -0 -0 -0 -0 0 -0 0 -0 -0 0 0 0 0 0 0 0 0 0 0 0 0 0 0 0 0 0 0 0 0 0 0
0 0 0 0 0 0 0 0 0 0 0 0 -0 -0 -0 -0 -0 -0 -0 0 0 -0 -0 0 0 0 0 0 0 -0 0 0 0 0 0 0 0 0 0 0 0 0 0 -0 0 0 0
0 0 0 0 0 0 0 0 0 0 0 0 -0 -0 -0 -0 -0 -0 0 0 0 0 0 -0 0 0 0 0 0 -0 -0 0 0 0 0 0 0 0 0 0 0 0 0 0 0 0 0
-0 0 0 0 0 0 0 0 0 0 0 0 0 -0 -0 -0 0 -0 -0 0 -0 0 0 -0 0 0 0 -0 -0 -0 0 -0 0 0 0 0 0 0 0 0 0 0 0 0 0 0 0
-0 0 0 0 0 0 0 0 0 0 0 0 -0 -0 -0 -0 -0 -0 0 0 -0 0 0 0 0 0 0 -0 -0 0 0 -0 0 0 0 0 0 -0 0 0 0 0 0 0 0 0 0
-0 0 0 0 0 0 0 0 0 0 0 0 0 -0 -0 -0 -0 0 -0 -0 -0 -0 0 0 0 0 0 -0 0 -0 0 0 0 0 0 0 0 0 0 0 0 0 0 0 0 0 0
0 0 0 0 0 0 0 0 0 0 0 0 0 -0 -0 0 0 -0 -0 -0 -0 0 0 0 0 0 0 0 0 0 0 0 0 0 0 0 0 0 0 0 0 0 0 0 0 0 0
0 0 0 0 0 0 0 0 0 0 0 0 0 -0 -0 -0 -0 -0 -0 -0 0 0 0 0 0 0 -0 -0 0 0 -0 -0 0 0 0 0 0 0 0 0 0 0 0 0 0 0 0
0 0 0 0 0 0 0 0 0 0 0 0 -0 -0 0 0 0 -0 -0 -0 0 0 0 0 0 0 0 0 0 0 -0 -0 -0 0 0 0 0 0 0 0 0 0 0 0 0 0 0
0 0 0 0 0 0 0 0 0 0 0 0 -0 0 0 0 0 -0 -0 0 -0 0 0 0 0 0 -0 0 0 0 0 0 0 0 0 0 0 0 0 0 0 0 0 0 0 0 0
0 0 0 0 0 0 0 0 0 0 0 0 0 -0 0 0 0 -0 -0 0 0 0 0 0 0 0 -0 0 0 0 0 0 0 0 0 0 0 0 0 0 0 0 0 0 0 0 0
0 0 0 0 0 0 0 0 0 0 0 -0 0 0 0 0 0 0 0 0 0 0 0 0 0 0 0 -0 0 0 -0 0 0 0 0 0 0 0 0 0 0 0 0 0 0 0 0
0 0 0 0 0 0 0 0 0 0 -0 0 0 -0 0 0 -0 0 0 0 0 0 0 0 0 0 0 0 0 0 0 0 0 0 0 0 0 0 0 0 0 0 0 0 0 0 0
0 0 0 0 0 0 0 0 0 0 0 0 0 -0 0 -0 -0 0 0 0 0 0 0 0 0 0 0 0 0 0 0 0 0 0 0 0 0 0 0 0 0 0 0 0 0 0 0
0 0 0 0 0 0 0 0 0 0 0 0 0 -0 0 0 0 0 0 0 0 0 0 0 0 0 0 0 0 0 0 0 -0 0 0 0 0 0 0 0 0 0 0 0 0 0 0
0 0 0 0 0 0 0 0 0 0 0 0 0 0 0 0 0 0 0 0 0 0 0 0 0 0 0 0 0 0 0 0 -0 0 0 0 0 0 0 0 0 0 0 0 0 0 0
0 0 0 0 0 0 0 -0 0 0 0 0 0 0 0 0 0 0 0 0 0 0 0 0 0 0 0 0 0 0 0 0 0 -0 0 0 0 0 0 0 0 0 0 0 0 0 0
0 0 0 0 0 0 0 0 0 0 0 0 0 0 0 0 0 -0 0 0 0 -0 0 0 0 0 0 0 0 0 0 0 0 0 0 0 0 0 0 0 0 0 0 0 0 0 0
0 0 0 0 0 -0 0 0 0 0 0 -0 0 -0 -0 0 0 0 0 0 0 0 0 0 0 0 0 0 0 0 0 0 0 0 0 0 0 0 0 0 0 0 0 0 0 0 0
0 0 0 0 0 0 0 0 0 0 0 0 0 -0 -0 -0 0 0 0 0 0 0 0 0 0 0 0 -0 -0 0 0 0 0 0 0 0 0 0 0 0 0 0 0 0 0 0 0
0 0 0 0 -0 0 0 0 0 0 0 0 0 -0 0 0 0 0 0 0 -0 0 0 0 0 0 0 0 -0 -0 0 0 0 -0 -0 0 0 0 0 0 0 0 0 1 0 0 1
0 0 0 0 0 0 0 0 0 0 -0 0 0 -0 0 0 0 0 0 0 0 0 0 0 0 0 0 0 0 0 0 0 0 0 -0 0 0 0 0 0 0 0 0 0 1 1 1
0 0 0 0 -0 0 0 0 0 0 -0 0 0 -0 0 0 0 0 0 0 0 -0 0 0 0 0 0 0 0 -0 0 0 0 0 0 0 0 0 0 0 0 0 1 1 1 1 1
0 0 0 0 -0 0 0 0 0 0 0 0 -0 -0 -0 0 0 0 0 -0 0 -0 0 0 0 0 0 0 0 0 -0 0 0 0 0 0 0 0 0 0 1 0 0 0 0 0 0
Wind_Speed_500mb
44 48 46 47 48 48 46 42 42 43 43 44 45 47 47 46 43 39 34 32 31 28 26 25 22 20 14 15 29 14 13 11 9 30 31 30 36 35 31 34 31 16 20 35 74 9 22
48 50 48 47 49 50 47 44 44 44 44 46 48 51 47 45 44 42 38 33 30 27 24 21 19 17 12 27 12 4 4 15 10 25 28 30 34 33 38 38 31 13 45 44 38 15 10
51 51 46 44 46 49 46 44 44 46 48 50 52 54 48 42 43 42 40 32 26 25 21 16 13 12 18 37 8 7 11 14 18 23 27 27 31 30 31 32 29 33 21 25 17 19 16
54 54 48 46 48 51 50 47 45 46 48 52 56 56 51 42 40 39 41 30 27 23 18 12 6 9 17 5 27 20 15 20 23 23 27 24 30 33 34 32 41 23 30 26 32 26 23
58 58 52 48 50 53 54 51 48 47 50 52 56 59 55 44 36 39 33 31 26 16 10 7 5 8 24 16 14 21 26 25 24 23 27 19 25 35 27 28 26 27 26 34 33 36 26
65 64 53 47 50 54 56 53 49 48 52 55 58 58 54 43 34 33 29 30 19 10 6 7 15 16 23 17 15 9 20 27 28 24 29 21 25 25 28 28 28 30 34 34 34 25 34
69 64 56 46 49 52 56 56 53 51 53 56 58 57 51 42 32 23 19 19 13 3 14 28 6 21 4 10 10 17 22 24 33 32 31 36 24 29 39 40 36 42 35 39 27 20 25
74 64 54 44 47 51 56 57 55 53 53 56 58 56 49 37 24 14 21 19 14 15 22 28 21 20 20 13 15 23 26 29 35 32 35 31 36 36 36 37 40 44 44 38 12 21 18
68 66 59 43 46 51 56 59 59 55 53 55 56 54 42 29 14 16 11 13 17 20 16 27 23 19 10 17 22 26 27 37 30 34 37 39 38 38 38 35 39 42 43 32 20 20 19
71 66 60 44 44 51 55 60 62 58 57 56 54 46 35 17 10 15 4 20 19 16 11 26 24 15 13 16 20 7 25 33 29 34 40 40 44 42 40 37 37 37 41 42 31 25 20
67 70 61 49 43 51 56 61 63 58 57 57 49 37 20 18 12 16 20 20 18 6 11 27 25 14 9 23 18 27 19 25 27 32 31 40 41 46 28 43 32 34 33 41 43 31 25
67 70 65 52 44 50 55 60 62 58 59 52 42 30 12 13 10 15 21 19 10 11 9 10 7 16 25 29 18 13 18 26 24 34 31 39 44 43 31 28 35 24 38 41 42 34 28
63 69 65 56 44 49 56 62 60 57 55 48 40 25 12 7 8 22 21 12 12 16 9 11 9 7 26 26 21 18 24 27 25 19 29 34 43 34 41 32 31 33 35 25 27 28 32
56 63 66 63 47 50 56 62 58 56 53 48 39 19 12 11 13 20 15 17 20 23 9 12 8 16 22 10 20 20 25 24 30 28 23 26 29 43 26 36 34 36 38 27 35 30 32
55 61 69 63 53 52 56 62 57 52 51 49 26 7 10 15 14 12 18 15 10 23 18 15 22 20 24 5 13 14 19 12 8 1 19 19 30 36 45 29 38 36 37 42 39 34 32
58 62 70 71 57 49 53 59 54 50 47 46 26 10 16 10 10 13 17 30 6 15 15 12 25 8 28 25 25 19 24 14 4 4 15 27 24 34 46 41 44 44 28 35 30 39 33
63 65 70 73 51 45 51 56 52 48 44 36 20 14 11 6 7 20 19 9 8 14 18 13 24 19 20 28 6 25 26 18 6 11 18 26 28 36 34 36 41 33 36 32 38 33 28
65 68 64 72 51 41 46 51 47 48 44 24 21 11 1 4 19 25 5 13 9 7 3 7 9 19 21 22 16 26 13 17 11 12 19 21 24 29 43 20 36 35 40 38 24 35 30
64 65 62 64 53 42 47 48 43 41 45 41 15 26 1 5 11 15 17 4 9 16 9 12 10 4 18 20 10 28 12 19 17 13 15 22 14 23 31 29 34 40 43 40 35 32 37
61 61 59 59 55 43 45 45 37 33 33 28 15 7 13 3 9 14 19 13 6 10 15 12 22 12 19 16 12 16 18 8 5 16 22 10 18 28 23 30 24 40 44 43 43 26 33
58 58 58 56 57 34 39 40 31 25 23 19 11 11 12 11 17 19 11 16 15 5 7 11 10 9 20 18 24 16 21 8 11 11 15 11 26 34 39 36 31 30 42 51 41 42 36
53 52 50 52 32 28 35 35 26 20 9 7 15 14 14 4 9 13 8 15 14 12 9 13 8 21 25 12 23 26 29 4 16 17 19 23 26 28 32 29 36 28 26 39 41 36 41
52 46 48 45 30 26 32 29 22 14 9 7 14 11 12 6 10 11 14 10 9 7 9 8 13 15 19 25 18 21 40 32 21 12 17 23 19 19 31 29 30 30 31 24 29 40 36
44 40 45 33 22 22 29 24 17 12 4 3 14 11 20 10 8 15 10 9 10 21 16 10 11 11 16 21 26 32 42 37 30 26 25 23 19 17 23 27 36 25 30 27 26 28 25
32 31 30 17 19 20 25 18 14 8 7 6 9 10 19 12 17 12 10 13 13 9 3 10 9 13 19 28 22 22 23 30 34 32 29 30 21 17 19 24 26 37 22 23 35 30 24
25 27 21 20 17 18 23 14 11 6 7 10 9 3 12 19 12 13 7 5 15 14 14 6 6 8 14 24 9 10 6 3 16 30 32 28 22 18 18 28 39 20 24 52 28 23 32
27 25 22 19 16 16 20 13 8 6 12 12 4 2 7 23 10 5 5 3 5 5 8 6 3 3 9 6 6 13 2 14 9 11 29 23 22 24 24 17 6 20 27 42 18 14 27
25 21 23 19 18 14 17 11 7 8 15 13 2 5 3 13 8 4 2 4 3 9 5 7 4 6 8 5 6 8 13 7 12 13 8 16 19 19 22 31 22 29 13 13 17 41 40
26 22 26 25 19 12 13 10 7 9 14 19 2 9 4 8 12 6 7 7 3 8 7 9 8 8 12 5 3 8 8 10 23 13 5 11 8 8 5 13 25 31 29 28 32 31 41
Wind_Direction_500mb
6 3 2 2 360 358 357 357 356 353 351 351 349 343 337 335 334 328 323 321 317 313 307 304 300 296 299 255 262 254 264 264 284 190 201 225 226 238 246 250 251 168 180 255 266 152 120
2 0 359 359 358 358 357 356 355 354 354 352 349 347 339 332 329 328 325 323 317 314 310 304 291 286 272 257 249 273 247 249 216 195 216 228 231 237 258 255 281 279 155 256 250 147 192
358 355 354 355 356 357 355 353 352 352 352 350 348 348 341 335 325 328 325 321 314 313 309 306 288 270 254 238 241 251 225 231 208 213 227 228 230 242 243 274 265 268 267 255 245 236 179
356 355 354 355 357 357 355 352 351 349 348 347 346 346 343 336 327 327 324 321 313 308 302 295 279 234 257 268 226 240 228 222 214 228 233 235 232 250 258 265 262 254 244 257 221 206 206
2 359 355 354 355 355 355 353 349 347 344 346 347 345 342 336 332 328 329 321 315 303 294 249 184 225 260 225 239 232 217 216 213 225 222 256 244 234 246 251 254 243 240 223 249 196 198
0 359 354 352 352 353 353 352 348 345 343 344 345 345 340 336 336 334 338 327 317 307 335 206 254 249 254 243 172 189 206 213 212 210 214 221 234 228 231 223 228 230 224 234 227 193 216
354 351 353 349 350 351 352 351 348 345 343 342 342 342 339 336 339 350 10 358 320 220 231 249 188 239 242 225 225 235 211 207 218 208 213 208 220 216 224 228 231 254 228 240 233 182 202
1 359 351 345 346 350 351 350 347 343 342 341 340 340 339 339 343 7 7 345 15 325 299 251 243 257 258 244 258 224 199 202 213 212 210 215 229 231 225 230 236 245 259 249 167 322 234
357 356 351 344 346 348 349 348 346 342 340 339 337 337 339 342 30 16 344 340 332 331 268 243 211 229 188 206 234 194 195 207 208 221 212 224 221 235 243 227 235 227 249 254 196 189 243
355 354 352 346 344 344 346 346 345 343 339 338 336 337 339 344 2 347 343 338 331 321 275 184 192 195 190 218 228 222 197 218 237 224 227 230 240 213 225 244 227 241 226 252 243 195 216
356 354 351 344 339 341 343 344 343 341 338 337 335 335 343 7 338 354 317 324 318 285 275 137 151 144 169 224 111 195 219 241 256 234 237 229 224 241 234 222 237 243 246 234 259 218 225
353 352 350 344 336 339 341 342 341 340 338 337 333 330 324 345 332 342 333 318 304 236 257 135 143 209 207 217 219 136 205 226 260 260 239 248 227 230 231 244 252 229 255 260 234 254 244
352 352 350 345 340 340 339 341 341 341 339 338 331 319 280 269 292 322 326 302 241 251 90 150 213 185 231 204 209 214 182 201 226 220 243 222 247 217 232 240 226 225 225 230 223 224 243
347 352 350 346 340 339 339 340 341 342 340 338 331 315 262 303 285 311 315 256 262 299 51 41 308 283 272 205 247 202 228 218 214 258 280 220 214 238 205 233 236 218 228 226 221 219 231
338 344 348 342 336 337 338 340 341 342 341 338 338 330 349 289 290 299 284 249 319 8 5 3 315 264 230 150 274 224 240 254 59 100 278 287 248 207 240 210 244 236 227 241 251 221 231
335 337 340 342 336 331 336 340 339 342 343 339 347 295 239 294 262 269 262 261 46 21 339 305 282 300 280 197 194 244 217 74 63 30 324 292 316 279 210 214 222 249 225 233 244 246 245
332 333 339 339 330 330 335 341 339 340 345 338 318 258 158 333 250 249 250 41 38 64 343 335 327 316 296 309 331 258 232 94 91 324 319 290 272 275 257 197 217 223 244 233 242 242 245
327 329 332 342 330 328 333 340 341 340 345 336 295 273 46 316 252 233 2 36 350 359 39 313 299 300 310 331 279 269 38 74 40 350 293 267 277 260 269 198 225 229 225 237 229 237 250
322 323 330 338 334 326 332 339 342 343 343 348 290 298 320 290 283 324 94 136 331 344 14 336 314 307 350 301 290 283 27 75 27 339 23 340 235 251 258 265 216 228 242 225 244 237 240
314 319 322 328 332 322 327 335 341 342 339 339 292 276 175 212 326 312 339 279 143 109 305 335 314 350 301 273 255 288 279 104 33 293 355 300 273 274 255 239 316 209 229 240 235 233 241
306 314 313 321 319 310 321 331 338 340 340 340 266 33 353 346 29 330 351 348 308 149 50 306 287 252 291 305 281 232 258 194 188 199 256 247 269 276 280 303 300 292 213 225 232 233 239
297 303 311 320 317 312 322 328 337 338 1 347 319 349 342 341 337 283 124 80 311 56 6 348 330 348 315 338 351 343 342 227 271 180 240 256 265 281 284 292 284 275 280 223 235 229 241
288 296 310 315 306 313 322 326 335 336 31 334 346 299 284 132 228 266 60 63 87 345 79 28 322 316 297 8 330 320 310 317 307 329 298 293 276 256 264 260 258 257 253 259 237 237 234
282 295 302 297 290 308 320 321 328 322 280 189 326 300 276 257 310 42 109 125 96 25 344 69 333 6 345 308 292 272 272 263 274 269 260 267 281 275 273 261 248 238 226 247 260 267 270
274 295 305 276 280 301 316 312 316 309 166 91 333 301 302 310 74 134 162 121 116 137 305 323 44 1 319 292 271 259 236 243 234 235 233 247 252 262 250 253 263 246 216 227 225 244 273
269 290 276 273 278 299 314 299 304 286 162 105 321 260 294 303 69 83 162 255 268 176 149 162 79 334 322 306 100 264 298 224 232 210 214 218 228 253 255 240 239 37 344 345 322 202 17
266 272 265 262 269 296 308 281 284 238 164 133 354 329 297 292 91 203 311 155 327 316 166 142 105 334 332 344 311 289 211 311 242 220 175 202 216 218 234 253 146 354 331 327 248 26 355
253 268 235 251 259 283 306 272 259 218 151 124 256 217 32 314 111 213 263 147 168 278 355 66 31 347 7 333 333 319 324 315 269 142 234 205 196 224 229 237 240 358 51 3 345 351 7
245 252 237 239 246 277 300 251 232 206 148 122 56 306 213 297 64 174 196 232 283 2 21 99 117 65 19 63 9 303 318 313 323 302 8 243 317 274 215 220 69 49 71 51 22 5 11
Wind_Speed_850mb
44 48 46 47 48 48 46 42 42 43 43 44 45 47 47 46 43 39 34 32 31 28 26 25 22 20 14 15 29 14 13 11 9 30 31 30 36 35 31 34 31 16 20 35 74 9 22
48 50 48 47 49 50 47 44 44 44 44 46 48 51 47 45 44 42 38 33 30 27 24 21 19 17 12 27 12 4 4 15 10 25 28 30 34 33 38 38 31 13 45 44 38 15 10
51 51 46 44 46 49 46 44 44 46 48 50 52 54 48 42 43 42 40 32 26 25 21 16 13 12 18 37 8 7 11 14 18 23 27 27 31 30 31 32 29 33 21 25 17 19 16
54 54 48 46 48 51 50 47 45 46 48 52 56 56 51 42 40 39 41 30 27 23 18 12 6 9 17 5 27 20 15 20 23 23 27 24 30 33 34 32 41 23 30 26 32 26 23
58 58 52 48 50 53 54 51 48 47 50 52 56 59 55 44 36 39 33 31 26 16 10 7 5 8 24 16 14 21 26 25 24 23 27 19 25 35 27 28 26 27 26 34 33 36 26
65 64 53 47 50 54 56 53 49 48 52 55 58 58 54 43 34 33 29 30 19 10 6 7 15 16 23 17 15 9 20 27 28 24 29 21 25 25 28 28 28 30 34 34 34 25 34
69 64 56 46 49 52 56 56 53 51 53 56 58 57 51 42 32 23 19 19 13 3 14 28 6 21 4 10 10 17 22 24 33 32 31 36 24 29 39 40 36 42 35 39 27 20 25
74 64 54 44 47 51 56 57 55 53 53 56 58 56 49 37 24 14 21 19 14 15 22 28 21 20 20 13 15 23 26 29 35 32 35 31 36 36 36 37 40 44 44 38 12 21 18
68 66 59 43 46 51 56 59 59 55 53 55 56 54 42 29 14 16 11 13 17 20 16 27 23 19 10 17 22 26 27 37 30 34 37 39 38 38 38 35 39 42 43 32 20 20 19
71 66 60 44 44 51 55 60 62 58 57 56 54 46 35 17 10 15 4 20 19 16 11 26 24 15 13 16 20 7 25 33 29 34 40 40 44 42 40 37 37 37 41 42 31 25 20
67 70 61 49 43 51 56 61 63 58 57 57 49 37 20 18 12 16 20 20 18 6 11 27 25 14 9 23 18 27 19 25 27 32 31 40 41 46 28 43 32 34 33 41 43 31 25
67 70 65 52 44 50 55 60 62 58 59 52 42 30 12 13 10 15 21 19 10 11 9 10 7 16 25 29 18 13 18 26 24 34 31 39 44 43 31 28 35 24 38 41 42 34 28
63 69 65 56 44 49 56 62 60 57 55 48 40 25 12 7 8 22 21 12 12 16 9 11 9 7 26 26 21 18 24 27 25 19 29 34 43 34 41 32 31 33 35 25 27 28 32
56 63 66 63 47 50 56 62 58 56 53 48 39 19 12 11 13 20 15 17 20 23 9 12 8 16 22 10 20 20 25 24 30 28 23 26 29 43 26 36 34 36 38 27 35 30 32
55 61 69 63 53 52 56 62 57 52 51 49 26 7 10 15 14 12 18 15 10 23 18 15 22 20 24 5 13 14 19 12 8 1 19 19 30 36 45 29 38 36 37 42 39 34 32
58 62 70 71 57 49 53 59 54 50 47 46 26 10 16 10 10 13 17 30 6 15 15 12 25 8 28 25 25 19 24 14 4 4 15 27 24 34 46 41 44 44 28 35 30 39 33
63 65 70 73 51 45 51 56 52 48 44 36 20 14 11 6 7 20 19 9 8 14 18 13 24 19 20 28 6 25 26 18 6 11 18 26 28 36 34 36 41 33 36 32 38 33 28
65 68 64 72 51 41 46 51 47 48 44 24 21 11 1 4 19 25 5 13 9 7 3 7 9 19 21 22 16 26 13 17 11 12 19 21 24 29 43 20 36 35 40 38 24 35 30
64 65 62 64 53 42 47 48 43 41 45 41 15 26 1 5 11 15 17 4 9 16 9 12 10 4 18 20 10 28 12 19 17 13 15 22 14 23 31 29 34 40 43 40 35 32 37
61 61 59 59 55 43 45 45 37 33 33 28 15 7 13 3 9 14 19 13 6 10 15 12 22 12 19 16 12 16 18 8 5 16 22 10 18 28 23 30 24 40 44 43 43 26 33
58 58 58 56 57 34 39 40 31 25 23 19 11 11 12 11 17 19 11 16 15 5 7 11 10 9 20 18 24 16 21 8 11 11 15 11 26 34 39 36 31 30 42 51 41 42 36
53 52 50 52 32 28 35 35 26 20 9 7 15 14 14 4 9 13 8 15 14 12 9 13 8 21 25 12 23 26 29 4 16 17 19 23 26 28 32 29 36 28 26 39 41 36 41
52 46 48 45 30 26 32 29 22 14 9 7 14 11 12 6 10 11 14 10 9 7 9 8 13 15 19 25 18 21 40 32 21 12 17 23 19 19 31 29 30 30 31 24 29 40 36
44 40 45 33 22 22 29 24 17 12 4 3 14 11 20 10 8 15 10 9 10 21 16 10 11 11 16 21 26 32 42 37 30 26 25 23 19 17 23 27 36 25 30 27 26 28 25
32 31 30 17 19 20 25 18 14 8 7 6 9 10 19 12 17 12 10 13 13 9 3 10 9 13 19 28 22 22 23 30 34 32 29 30 21 17 19 24 26 37 22 23 35 30 24
25 27 21 20 17 18 23 14 11 6 7 10 9 3 12 19 12 13 7 5 15 14 14 6 6 8 14 24 9 10 6 3 16 30 32 28 22 18 18 28 39 20 24 52 28 23 32
27 25 22 19 16 16 20 13 8 6 12 12 4 2 7 23 10 5 5 3 5 5 8 6 3 3 9 6 6 13 2 14 9 11 29 23 22 24 24 17 6 20 27 42 18 14 27
25 21 23 19 18 14 17 11 7 8 15 13 2 5 3 13 8 4 2 4 3 9 5 7 4 6 8 5 6 8 13 7 12 13 8 16 19 19 22 31 22 29 13 13 17 41 40
26 22 26 25 19 12 13 10 7 9 14 19 2 9 4 8 12 6 7 7 3 8 7 9 8 8 12 5 3 8 8 10 23 13 5 11 8 8 5 13 25 31 29 28 32 31 41
Wind_Direction_850mb
6 3 2 2 360 358 357 357 356 353 351 351 349 343 337 335 334 328 323 321 317 313 307 304 300 296 299 255 262 254 264 264 284 190 201 225 226 238 246 250 251 168 180 255 266 152 120
2 0 359 359 358 358 357 356 355 354 354 352 349 347 339 332 329 328 325 323 317 314 310 304 291 286 272 257 249 273 247 249 216 195 216 228 231 237 258 255 281 279 155 256 250 147 192
358 355 354 355 356 357 355 353 352 352 352 350 348 348 341 335 325 328 325 321 314 313 309 306 288 270 254 238 241 251 225 231 208 213 227 228 230 242 243 274 265 268 267 255 245 236 179
356 355 354 355 357 357 355 352 351 349 348 347 346 346 343 336 327 327 324 321 313 308 302 295 279 234 257 268 226 240 228 222 214 228 233 235 232 250 258 265 262 254 244 257 221 206 206
2 359 355 354 355 355 355 353 349 347 344 346 347 345 342 336 332 328 329 321 315 303 294 249 184 225 260 225 239 232 217 216 213 225 222 256 244 234 246 251 254 243 240 223 249 196 198
0 359 354 352 352 353 353 352 348 345 343 344 345 345 340 336 336 334 338 327 317 307 335 206 254 249 254 243 172 189 206 213 212 210 214 221 234 228 231 223 228 230 224 234 227 193 216
354 351 353 349 350 351 352 351 348 345 343 342 342 342 339 336 339 350 10 358 320 220 231 249 188 239 242 225 225 235 211 207 218 208 213 208 220 216 224 228 231 254 228 240 233 182 202
1 359 351 345 346 350 351 350 347 343 342 341 340 340 339 339 343 7 7 345 15 325 299 251 243 257 258 244 258 224 199 202 213 212 210 215 229 231 225 230 236 245 259 249 167 322 234
357 356 351 344 346 348 349 348 346 342 340 339 337 337 339 342 30 16 344 340 332 331 268 243 211 229 188 206 234 194 195 207 208 221 212 224 221 235 243 227 235 227 249 254 196 189 243
355 354 352 346 344 344 346 346 345 343 339 338 336 337 339 344 2 347 343 338 331 321 275 184 192 195 190 218 228 222 197 218 237 224 227 230 240 213 225 244 227 241 226 252 243 195 216
356 354 351 344 339 341 343 344 343 341 338 337 335 335 343 7 338 354 317 324 318 285 275 137 151 144 169 224 111 195 219 241 256 234 237 229 224 241 234 222 237 243 246 234 259 218 225
353 352 350 344 336 339 341 342 341 340 338 337 333 330 324 345 332 342 333 318 304 236 257 135 143 209 207 217 219 136 205 226 260 260 239 248 227 230 231 244 252 229 255 260 234 254 244
352 352 350 345 340 340 339 341 341 341 339 338 331 319 280 269 292 322 326 302 241 251 90 150 213 185 231 204 209 214 182 201 226 220 243 222 247 217 232 240 226 225 225 230 223 224 243
347 352 350 346 340 339 339 340 341 342 340 338 331 315 262 303 285 311 315 256 262 299 51 41 308 283 272 205 247 202 228 218 214 258 280 220 214 238 205 233 236 218 228 226 221 219 231
338 344 348 342 336 337 338 340 341 342 341 338 338 330 349 289 290 299 284 249 319 8 5 3 315 264 230 150 274 224 240 254 59 100 278 287 248 207 240 210 244 236 227 241 251 221 231
335 337 340 342 336 331 336 340 339 342 343 339 347 295 239 294 262 269 262 261 46 21 339 305 282 300 280 197 194 244 217 74 63 30 324 292 316 279 210 214 222 249 225 233 244 246 245
332 333 339 339 330 330 335 341 339 340 345 338 318 258 158 333 250 249 250 41 38 64 343 335 327 316 296 309 331 258 232 94 91 324 319 290 272 275 257 197 217 223 244 233 242 242 245
327 329 332 342 330 328 333 340 341 340 345 336 295 273 46 316 252 233 2 36 350 359 39 313 299 300 310 331 279 269 38 74 40 350 293 267 277 260 269 198 225 229 225 237 229 237 250
322 323 330 338 334 326 332 339 342 343 343 348 290 298 320 290 283 324 94 136 331 344 14 336 314 307 350 301 290 283 27 75 27 339 23 340 235 251 258 265 216 228 242 225 244 237 240
314 319 322 328 332 322 327 335 341 342 339 339 292 276 175 212 326 312 339 279 143 109 305 335 314 350 301 273 255 288 279 104 33 293 355 300 273 274 255 239 316 209 229 240 235 233 241
306 314 313 321 319 310 321 331 338 340 340 340 266 33 353 346 29 330 351 348 308 149 50 306 287 252 291 305 281 232 258 194 188 199 256 247 269 276 280 303 300 292 213 225 232 233 239
297 303 311 320 317 312 322 328 337 338 1 347 319 349 342 341 337 283 124 80 311 56 6 348 330 348 315 338 351 343 342 227 271 180 240 256 265 281 284 292 284 275 280 223 235 229 241
288 296 310 315 306 313 322 326 335 336 31 334 346 299 284 132 228 266 60 63 87 345 79 28 322 316 297 8 330 320 310 317 307 329 298 293 276 256 264 260 258 257 253 259 237 237 234
282 295 302 297 290 308 320 321 328 322 280 189 326 300 276 257 310 42 109 125 96 25 344 69 333 6 345 308 292 272 272 263 274 269 260 267 281 275 273 261 248 238 226 247 260 267 270
274 295 305 276 280 301 316 312 316 309 166 91 333 301 302 310 74 134 162 121 116 137 305 323 44 1 319 292 271 259 236 243 234 235 233 247 252 262 250 253 263 246 216 227 225 244 273
269 290 276 273 278 299 314 299 304 286 162 105 321 260 294 303 69 83 162 255 268 176 149 162 79 334 322 306 100 264 298 224 232 210 214 218 228 253 255 240 239 37 344 345 322 202 17
266 272 265 262 269 296 308 281 284 238 164 133 354 329 297 292 91 203 311 155 327 316 166 142 105 334 332 344 311 289 211 311 242 220 175 202 216 218 234 253 146 354 331 327 248 26 355
253 268 235 251 259 283 306 272 259 218 151 124 256 217 32 314 111 213 263 147 168 278 355 66 31 347 7 333 333 319 324 315 269 142 234 205 196 224 229 237 240 358 51 3 345 351 7
245 252 237 239 246 277 300 251 232 206 148 122 56 306 213 297 64 174 196 232 283 2 21 99 117 65 19 63 9 303 318 313 323 302 8 243 317 274 215 220 69 49 71 51 22 5 11